Starlink 31480

operational
NORAD ID: 59306 Int'l Des: 2024-056 Owner: SPXS Country: US Constellation: starlink
LEOCIRCULAR

About Starlink 31480

Description loading...

Live Position

Loading 3D Globe...

Upcoming Passes

Altitude History

Altitude vs Time

uPlot chart will show altitude changes over time

Two-Line Element Set

1 59306U 24056L 25305.51827215 -.00000100 00000-0 59046-5 0 9997
2 59306 43.0019 234.4306 0001030 285.4823 74.5915 15.27565867 91553
Epoch: Nov 1, 2025 • Age: 9 hours

Current Status

Altitude 484.8 km
Velocity 7.62 km/s
Sub-Earth Point -10.42°S, 65.25°E
Launch Date Mar 24, 2024
Age 1.6 years
Type internet

Technical Details

Classification Payload
Mass 730.00 kg
Dry Mass 700.00 kg
Total Mass 730.00 kg
Length 0.30 m
Diameter 4.10 m
Span 29.00 m
Shape Box + pan
Manufacturer SPXS
Bus Type Starlink V2M
Phase Status In Orbit
Owner/State SPXS/US

Large Constellations

Loading constellations...